FW6909 Weather Reports


time (UTC)temp
F
wind
direction
speed
knots
gust
knots
rain 1hr
in
rain 24hr
in
rain mn
in
humidity
%
barometer
mb
20260508142533 57 273 2.6 7.8 0.00 0.07 0.07 54 1017.0
20260508142030 56 276 2.6 7.8 0.00 0.07 0.07 53 1017.0
20260508141553 56 270 3.5 7.8 0.00 0.07 0.07 55 1017.0
20260508141030 56 266 3.5 7.0 0.00 0.07 0.07 54 1016.8
20260508140530 56 340 1.7 6.1 0.00 0.07 0.07 56 1016.9
20260508140044 56 280 0.9 8.7 0.00 0.07 0.07 58 1017.0
20260508135532 56 286 3.5 8.7 0.00 0.07 0.07 55 1016.9
20260508135032 56 302 3.5 8.7 0.00 0.07 0.07 55 1017.0
20260508134553 56 285 3.5 6.1 0.00 0.07 0.07 56 1017.0
20260508134032 56 281 2.6 6.1 0.00 0.07 0.07 56 1017.0
20260508133531 56 278 0.9 6.1 0.00 0.07 0.07 57 1017.0
20260508133036 56 295 2.6 7.8 0.00 0.07 0.07 57 1017.0
20260508132534 56 267 3.5 7.8 0.00 0.07 0.07 57 1016.9
20260508132033 56 285 1.7 7.8 0.00 0.07 0.07 58 1016.9
20260508131543 56 291 4.3 7.8 0.00 0.07 0.07 56 1016.8
20260508131031 56 248 2.6 7.0 0.00 0.07 0.07 58 1016.8
20260508130531 56 285 2.6 7.0 0.00 0.07 0.07 58 1016.7
20260508130043 56 298 2.6 6.1 0.00 0.07 0.07 58 1016.7
20260508125531 56 323 1.7 8.7 0.00 0.08 0.07 58 1016.7
20260508125031 56 298 2.6 8.7 0.00 0.08 0.07 58 1016.8
20260508124542 56 294 3.5 8.7 0.00 0.08 0.07 58 1016.7
20260508124031 56 281 1.7 5.2 0.00 0.08 0.07 60 1016.6
20260508123531 56 30 1.7 6.1 0.00 0.08 0.07 60 1016.6
20260508123044 55 245 1.7 7.0 0.00 0.08 0.07 60 1016.7
20260508122532 55 259 3.5 7.0 0.00 0.08 0.07 58 1016.6
20260508122031 56 290 1.7 7.0 0.00 0.08 0.07 59 1016.5
20260508121542 56 266 2.6 7.0 0.00 0.08 0.07 59 1016.6
20260508121030 56 269 1.7 7.0 0.00 0.08 0.07 60 1016.5
20260508120530 55 309 0.9 5.2 0.00 0.08 0.07 61 1016.4
20260508120045 55 281 2.6 6.1 0.00 0.08 0.07 61 1016.6
20260508115531 55 307 3.5 6.1 0.00 0.08 0.07 60 1016.5
20260508115030 55 250 3.5 6.1 0.00 0.08 0.07 59 1016.5
20260508114548 55 296 2.6 6.1 0.00 0.08 0.07 61 1016.5
20260508114030 55 320 2.6 7.0 0.00 0.08 0.07 60 1016.5
20260508113533 56 272 2.6 7.0 0.00 0.08 0.07 61 1016.4
20260508113040 55 286 2.6 7.0 0.00 0.08 0.07 61 1016.2
20260508112528 56 230 2.6 6.1 0.00 0.08 0.07 60 1016.3
20260508112031 55 286 2.6 7.8 0.00 0.08 0.07 61 1016.2
20260508111545 54 289 3.5 9.6 0.00 0.08 0.07 60 1016.2
20260508111030 54 300 4.3 9.6 0.00 0.08 0.07 61 1016.1
20260508110530 54 288 4.3 9.6 0.00 0.08 0.07 60 1016.2
20260508110035 54 279 2.6 7.8 0.00 0.08 0.07 61 1016.2
20260508105531 54 296 3.5 7.8 0.00 0.08 0.07 60 1016.3
20260508105031 54 285 3.5 7.8 0.00 0.08 0.07 59 1016.1
20260508104535 55 294 2.6 7.0 0.00 0.08 0.07 60 1016.1
20260508104030 54 259 3.5 7.0 0.00 0.08 0.07 60 1016.1
20260508103530 54 279 3.5 7.0 0.00 0.08 0.07 60 1016.0
20260508103040 55 266 3.5 7.0 0.00 0.08 0.07 60 1015.9
20260508102530 54 227 3.5 7.0 0.00 0.08 0.07 63 1016.0
20260508102030 54 287 2.6 7.0 0.00 0.08 0.07 63 1015.9
20260508101542 54 311 2.6 7.8 0.00 0.08 0.07 61 1015.9
20260508101031 54 226 3.5 7.8 0.00 0.08 0.07 62 1015.9
20260508100531 54 231 3.5 6.1 0.00 0.08 0.07 61 1015.9
20260508100041 54 299 1.7 6.1 0.00 0.08 0.07 64 1015.8
20260508095531 54 291 1.7 6.1 0.00 0.08 0.07 64 1015.7
20260508095032 54 266 1.7 6.1 0.00 0.08 0.07 64 1015.7
20260508094553 54 226 2.6 6.1 0.00 0.08 0.07 65 1015.7
20260508094031 54 272 2.6 6.1 0.00 0.08 0.07 65 1015.6
20260508093531 54 252 1.7 7.0 0.00 0.08 0.07 66 1015.6
20260508093036 54 283 2.6 7.0 0.00 0.08 0.07 65 1015.5
20260508092531 54 305 2.6 6.1 0.00 0.08 0.07 67 1015.6
20260508092030 53 296 1.7 6.1 0.00 0.08 0.07 69 1015.6
20260508091545 53 284 1.7 5.2 0.00 0.08 0.07 69 1015.6
20260508091032 53 291 2.6 6.1 0.00 0.08 0.07 69 1015.6
20260508090531 53 302 2.6 6.1 0.00 0.08 0.07 70 1015.7
20260508090049 52 245 1.7 6.1 0.00 0.08 0.07 70 1015.5
20260508085527 52 260 2.6 6.1 0.00 0.09 0.07 71 1015.3
20260508085031 52 267 2.6 6.1 0.00 0.09 0.07 72 1015.2
20260508084540 52 290 2.6 6.1 0.00 0.09 0.07 73 1015.2
20260508084033 52 293 1.7 6.1 0.00 0.09 0.07 74 1015.2
20260508083533 52 285 1.7 7.0 0.00 0.09 0.07 74 1015.2
20260508083038 52 267 2.6 7.0 0.00 0.09 0.07 74 1015.1
20260508082531 51 289 2.6 6.1 0.00 0.09 0.07 76 1015.0
20260508082031 51 252 1.7 5.2 0.00 0.09 0.07 77 1014.9
20260508081600 51 288 1.7 4.3 0.00 0.09 0.07 78 1015.0
20260508081030 51 228 1.7 7.0 0.00 0.09 0.07 78 1015.0
20260508080534 50 319 2.6 7.0 0.00 0.09 0.07 78 1015.0
20260508080036 50 288 3.5 7.0 0.00 0.09 0.07 78 1015.0
20260508075533 50 295 2.6 6.1 0.00 0.09 0.07 79 1014.8
20260508075031 50 283 0.9 3.5 0.00 0.09 0.07 81 1014.7
20260508074536 50 319 0.0 2.6 0.00 0.09 0.07 82 1014.7
20260508074034 50 278 1.7 2.6 0.00 0.09 0.07 82 1014.8
20260508073531 50 211 0.0 2.6 0.00 0.09 0.07 83 1014.7
20260508073040 49 276 0.9 5.2 0.00 0.09 0.07 82 1014.6
20260508072531 49 298 1.7 5.2 0.00 0.09 0.07 83 1014.5
20260508072032 49 247 0.9 2.6 0.00 0.09 0.07 84 1014.5
20260508071544 49 287 0.9 2.6 0.00 0.09 0.07 84 1014.4
20260508071031 49 262 0.9 2.6 0.00 0.09 0.07 85 1014.4
20260508070533 49 0 0.0 1.7 0.00 0.09 0.07 85 1014.3
20260508070039 48 263 0.0 1.7 0.00 0.09 0.07 85 1014.1
20260508065530 48 338 0.0 2.6 0.00 0.09 0.07 86 1014.1
20260508065030 48 0 0.0 2.6 0.00 0.09 0.07 86 1014.0
20260508064543 48 0 0.0 0.9 0.00 0.09 0.07 86 1013.9
20260508064030 48 0 0.0 0.9 0.00 0.09 0.07 86 1013.8
20260508063529 48 245 0.0 0.9 0.00 0.09 0.07 86 1013.9
20260508063052 48 245 0.0 0.9 0.00 0.09 0.07 86 1013.8
20260508062532 48 0 0.0 0.9 0.00 0.09 0.07 86 1013.7
20260508062027 48 233 0.0 2.6 0.00 0.09 0.07 86 1013.6
20260508061543 48 0 0.0 2.6 0.00 0.09 0.07 86 1013.6
20260508061031 48 0 0.0 0.9 0.00 0.09 0.07 87 1013.5
20260508060530 48 0 0.0 0.9 0.00 0.09 0.07 87 1013.5
20260508060039 47 236 0.0 0.9 0.00 0.09 0.07 87 1013.5
20260508055531 47 0 0.0 0.9 0.00 0.09 0.07 87 1013.4
20260508055035 47 270 0.0 0.9 0.00 0.09 0.07 87 1013.4
20260508054538 47 225 0.0 0.9 0.00 0.09 0.07 87 1013.4
20260508054032 47 0 0.0 0.9 0.00 0.09 0.07 87 1013.3
20260508053530 47 0 0.0 0.0 0.00 0.09 0.07 87 1013.2
20260508053042 47 0 0.0 0.9 0.00 0.09 0.07 87 1013.1
20260508052532 47 0 0.0 0.9 0.00 0.09 0.07 87 1013.1
20260508052031 47 160 0.0 1.7 0.00 0.09 0.07 87 1013.0
20260508051535 47 0 0.0 1.7 0.00 0.09 0.07 87 1013.0
20260508051031 47 0 0.0 0.9 0.00 0.09 0.07 87 1013.0
20260508050528 47 219 0.0 1.7 0.00 0.09 0.07 87 1013.0
20260508050047 47 0 0.0 1.7 0.00 0.09 0.07 87 1013.0
20260508045527 48 0 0.0 0.0 0.00 0.09 0.07 87 1013.0
20260508045027 48 0 0.0 0.0 0.00 0.09 0.07 87 1012.9
20260508044542 48 0 0.0 0.9 0.00 0.09 0.07 87 1012.8
20260508044031 48 0 0.0 1.7 0.00 0.09 0.07 87 1012.9
20260508043532 48 0 0.0 1.7 0.00 0.09 0.07 87 1012.7
20260508043037 47 173 0.0 1.7 0.00 0.09 0.07 87 1012.7
20260508042529 47 0 0.0 1.7 0.00 0.09 0.07 87 1012.7
20260508042027 47 0 0.0 0.9 0.00 0.09 0.07 87 1012.7
20260508041536 48 250 0.0 0.9 0.00 0.09 0.07 87 1012.6
20260508041028 47 245 0.0 0.9 0.00 0.09 0.07 87 1012.6
20260508040529 48 0 0.0 0.9 0.00 0.09 0.07 87 1012.4
20260508040048 48 0 0.0 0.9 0.00 0.09 0.07 86 1012.5
20260508035527 48 0 0.0 0.9 0.00 0.09 0.07 86 1012.5
20260508035027 48 0 0.0 0.0 0.00 0.09 0.07 86 1012.5
20260508034542 48 0 0.0 0.9 0.00 0.09 0.07 86 1012.4
20260508034027 48 0 0.0 0.9 0.00 0.09 0.07 86 1012.3
20260508033527 48 0 0.0 0.9 0.00 0.09 0.07 86 1012.3
20260508033036 48 251 0.0 0.9 0.00 0.09 0.07 86 1012.3
20260508032531 48 0 0.0 0.0 0.00 0.09 0.07 86 1012.3
20260508032030 48 0 0.0 0.9 0.00 0.09 0.07 86 1012.3
20260508031537 48 0 0.0 0.9 0.00 0.09 0.07 86 1012.4
20260508031031 48 0 0.0 2.6 0.00 0.09 0.07 86 1012.3
20260508030531 48 0 0.0 2.6 0.00 0.09 0.07 86 1012.3
20260508030036 48 0 0.0 0.9 0.00 0.09 0.07 86 1012.3
20260508025531 48 0 0.0 1.7 0.00 0.09 0.07 86 1012.3
20260508025030 48 0 0.0 1.7 0.00 0.09 0.07 86 1012.2
20260508024546 48 0 0.0 1.7 0.00 0.09 0.07 86 1012.1
20260508024028 48 293 0.0 1.7 0.00 0.09 0.07 86 1012.3
20260508023528 48 245 0.0 1.7 0.00 0.09 0.07 86 1012.2
20260508023042 48 288 0.0 1.7 0.00 0.09 0.07 86 1012.3
20260508022527 48 0 0.0 0.9 0.00 0.09 0.07 86 1012.3
20260508022058 48 0 0.0 0.9 0.00 0.09 0.07 86 1012.2
20260508021539 48 0 0.0 0.9 0.00 0.09 0.07 86 1012.2
20260508021027 48 0 0.0 0.9 0.00 0.09 0.07 86 1012.2
20260508020529 48 0 0.0 0.9 0.00 0.09 0.07 86 1012.2
20260508020036 48 0 0.0 0.9 0.00 0.09 0.07 85 1012.3
20260508015531 48 0 0.0 0.0 0.00 0.09 0.07 85 1012.2
20260508015031 48 0 0.0 0.0 0.00 0.09 0.07 85 1012.2
20260508014541 48 0 0.0 0.9 0.00 0.09 0.07 85 1012.2
20260508014033 48 0 0.0 0.9 0.00 0.09 0.07 85 1012.0
20260508013531 48 0 0.0 1.7 0.00 0.09 0.07 85 1011.9
20260508013035 48 0 0.0 1.7 0.00 0.09 0.07 85 1011.9
20260508012530 48 0 0.0 0.9 0.00 0.09 0.07 85 1011.9
20260508012032 48 0 0.0 0.9 0.00 0.09 0.07 85 1011.9
20260508011538 48 328 0.0 0.9 0.00 0.09 0.07 85 1011.8
20260508011027 48 2 0.0 0.9 0.00 0.09 0.07 85 1011.9
20260508010527 48 304 0.0 1.7 0.00 0.09 0.07 85 1011.9
20260508010039 48 334 0.0 1.7 0.00 0.09 0.07 84 1011.8
20260508005527 48 0 0.0 1.7 0.01 0.09 0.07 84 1011.8
20260508005027 48 160 0.0 1.7 0.01 0.09 0.07 84 1011.8
20260508004536 48 354 0.0 1.7 0.02 0.09 0.07 84 1011.7
20260508004030 48 0 0.0 1.7 0.02 0.09 0.07 84 1011.8
20260508003533 48 0 0.0 2.6 0.03 0.09 0.07 84 1011.8
20260508003041 48 140 0.0 2.6 0.04 0.09 0.07 83 1011.7
20260508002527 47 91 0.0 2.6 0.07 0.09 0.07 83 1011.9
20260508002027 48 0 0.0 1.7 0.07 0.09 0.07 83 1011.9
20260508001542 48 0 0.0 0.9 0.07 0.09 0.07 83 1011.9
20260508001031 48 49 0.0 0.9 0.07 0.09 0.07 82 1012.0
20260508000527 48 0 0.0 0.9 0.07 0.08 0.07 82 1012.0
20260508000041 48 0 0.0 0.9 0.06 0.07 0.06 82 1012.1
20260507235527 48 0 0.0 0.9 0.06 0.07 0.06 81 1012.0
20260507235027 48 0 0.0 1.7 0.06 0.07 0.06 81 1011.9
20260507234537 49 269 0.0 1.7 0.05 0.07 0.05 81 1012.0
20260507234027 49 278 0.9 3.5 0.05 0.07 0.05 80 1011.9
20260507233531 49 250 0.0 3.5 0.03 0.05 0.03 79 1011.9
20260507233043 50 286 0.9 3.5 0.02 0.03 0.02 78 1011.8
20260507232529 50 293 0.9 4.3 0.00 0.01 0.00 77 1011.7
20260507232027 50 338 0.9 4.3 0.00 0.01 0.00 76 1011.7
20260507231538 50 0 0.0 1.7 0.00 0.01 0.00 76 1011.5
20260507231031 50 256 0.0 2.6 0.00 0.01 0.00 76 1011.5
20260507230531 50 266 0.0 3.5 0.00 0.01 0.00 75 1011.5
20260507230049 50 87 0.0 3.5 0.00 0.01 0.00 75 1011.7
20260507225531 50 221 0.0 3.5 0.00 0.01 0.01 75 1011.6
20260507225031 50 303 0.0 3.5 0.00 0.01 0.01 75 1011.5
20260507224542 50 62 0.9 3.5 0.00 0.01 0.01 75 1011.6
20260507224032 50 250 0.0 3.5 0.00 0.01 0.01 75 1011.5
20260507223531 50 4 0.0 3.5 0.00 0.01 0.01 75 1011.6
20260507223041 50 94 0.9 3.5 0.00 0.01 0.01 75 1011.6
20260507222536 50 66 0.0 3.5 0.00 0.01 0.01 76 1011.6
20260507222031 50 250 0.9 3.5 0.00 0.01 0.01 76 1011.6
20260507221540 50 86 0.9 3.5 0.00 0.01 0.01 76 1011.4
20260507221031 50 0 0.9 3.5 0.00 0.01 0.01 76 1011.3
20260507220533 50 49 0.9 3.5 0.00 0.01 0.01 76 1011.3
20260507220037 50 148 0.9 3.5 0.00 0.01 0.01 76 1011.4
20260507215533 50 51 0.0 3.5 0.00 0.01 0.01 76 1011.3
20260507215031 50 272 0.0 3.5 0.00 0.01 0.01 76 1011.4
20260507214556 50 0 0.0 2.6 0.00 0.01 0.01 76 1011.5
20260507214031 50 0 0.0 2.6 0.00 0.01 0.01 75 1011.5
20260507213533 50 320 0.0 2.6 0.00 0.01 0.01 75 1011.5
20260507213044 50 0 0.0 2.6 0.00 0.01 0.01 75 1011.5
20260507212531 50 347 0.0 1.7 0.00 0.01 0.01 75 1011.6
20260507212032 50 72 0.0 1.7 0.00 0.01 0.01 74 1011.5
20260507211539 50 0 0.0 0.9 0.00 0.01 0.01 74 1011.6
20260507211030 51 0 0.0 0.9 0.00 0.01 0.01 74 1011.6
20260507210531 51 0 0.0 0.9 0.00 0.01 0.01 73 1011.6
20260507210036 51 72 0.0 0.9 0.00 0.01 0.01 73 1011.6
20260507205532 51 0 0.0 1.7 0.00 0.01 0.01 73 1011.7
20260507205032 51 73 0.0 2.6 0.00 0.01 0.01 73 1011.5
20260507204543 51 247 0.0 2.6 0.00 0.01 0.01 72 1011.6
20260507204033 51 211 0.9 2.6 0.00 0.01 0.01 72 1011.5
20260507203531 51 0 0.9 3.5 0.00 0.01 0.01 72 1011.5
20260507203101 52 0 0.0 3.5 0.00 0.01 0.01 71 1011.4
20260507202531 52 85 0.0 3.5 0.00 0.01 0.01 71 1011.4
20260507202031 52 9 0.0 3.5 0.00 0.01 0.01 70 1011.4
20260507201554 52 60 0.0 3.5 0.00 0.01 0.01 70 1011.3
20260507201031 52 51 0.0 5.2 0.00 0.01 0.01 70 1011.4
20260507200532 52 224 0.0 5.2 0.00 0.01 0.01 70 1011.2
20260507200103 52 123 0.0 5.2 0.00 0.01 0.01 70 1011.3
20260507195532 52 89 0.0 2.6 0.00 0.01 0.01 69 1011.3
20260507195036 52 75 0.0 2.6 0.00 0.01 0.01 69 1011.3
20260507194537 53 177 0.9 2.6 0.00 0.01 0.01 69 1011.3
20260507194032 53 0 0.0 3.5 0.00 0.01 0.01 68 1011.0
20260507193533 53 260 0.0 3.5 0.00 0.01 0.01 68 1011.1
20260507193044 53 142 0.0 2.6 0.00 0.01 0.01 68 1011.0
20260507192531 53 87 0.0 2.6 0.00 0.01 0.01 68 1010.9
20260507192039 53 0 0.0 1.7 0.00 0.01 0.01 68 1010.9
20260507191543 53 277 0.0 2.6 0.00 0.01 0.01 67 1010.9
20260507191031 54 94 0.0 2.6 0.00 0.01 0.01 67 1010.8
20260507190536 54 95 0.0 2.6 0.00 0.01 0.01 65 1010.8
20260507190042 54 0 0.0 4.3 0.00 0.01 0.01 64 1010.7
20260507185534 55 0 0.9 4.3 0.00 0.01 0.01 63 1010.8
20260507185031 56 317 0.0 3.5 0.00 0.01 0.01 61 1010.7
20260507184541 56 89 0.9 3.5 0.00 0.01 0.01 59 1010.8
20260507184031 57 77 0.0 2.6 0.00 0.01 0.01 58 1010.8
20260507183531 58 343 0.0 2.6 0.00 0.01 0.01 57 1010.9
20260507183046 58 228 0.9 2.6 0.00 0.01 0.01 58 1010.7
20260507182533 57 321 0.0 4.3 0.00 0.01 0.01 58 1010.7
20260507182031 57 359 0.9 4.3 0.00 0.01 0.01 59 1010.5
20260507181543 57 214 0.9 4.3 0.00 0.01 0.01 58 1010.6
20260507181032 57 212 0.9 2.6 0.00 0.01 0.01 59 1010.7
20260507180535 56 27 0.0 2.6 0.00 0.01 0.01 61 1010.8
20260507180038 56 100 0.0 3.5 0.00 0.01 0.01 61 1010.8
20260507175531 55 143 0.9 3.5 0.00 0.01 0.01 62 1010.8
20260507175031 55 333 0.9 3.5 0.00 0.01 0.01 62 1010.9
20260507174544 55 208 0.9 4.3 0.00 0.01 0.01 62 1010.8
20260507174034 55 236 0.0 4.3 0.00 0.01 0.01 63 1010.9
20260507173532 55 75 0.0 3.5 0.00 0.01 0.01 63 1010.8
20260507173040 55 288 0.9 3.5 0.00 0.01 0.01 62 1010.9
20260507172531 55 345 0.9 2.6 0.00 0.01 0.01 61 1010.8
20260507172030 55 295 0.9 2.6 0.00 0.01 0.01 60 1010.9
20260507171536 56 322 0.0 3.5 0.00 0.01 0.01 59 1010.9
20260507171031 56 276 0.0 3.5 0.00 0.01 0.01 59 1010.9
20260507170532 56 356 0.9 2.6 0.00 0.01 0.01 57 1010.9
20260507170043 56 224 0.9 5.2 0.00 0.01 0.01 58 1010.8
20260507165532 56 193 0.9 5.2 0.00 0.01 0.01 57 1010.9
20260507165031 56 147 0.9 5.2 0.00 0.01 0.01 57 1010.9
20260507164556 56 184 0.0 7.0 0.00 0.01 0.01 57 1011.0
20260507164032 57 46 0.9 7.0 0.00 0.01 0.01 56 1010.9
20260507163532 57 247 1.7 6.1 0.00 0.01 0.01 55 1011.0
20260507163041 58 200 0.9 6.1 0.00 0.01 0.01 56 1011.1
20260507162531 58 257 0.9 6.1 0.00 0.01 0.01 58 1011.0
20260507162031 58 281 2.6 7.8 0.00 0.01 0.01 57 1010.9
20260507161542 58 323 0.9 7.8 0.00 0.01 0.01 58 1010.9
20260507161031 58 210 0.9 6.1 0.00 0.01 0.01 59 1010.9
20260507160531 58 305 0.9 4.3 0.00 0.01 0.01 59 1010.9
20260507160036 58 231 0.9 8.7 0.00 0.01 0.01 58 1010.9
20260507155530 58 120 1.7 8.7 0.00 0.01 0.01 59 1010.8
20260507155031 58 279 2.6 8.7 0.00 0.01 0.01 58 1010.9
20260507154550 58 283 1.7 5.2 0.00 0.01 0.01 59 1010.9
20260507154031 58 354 1.7 5.2 0.00 0.01 0.01 60 1010.8
20260507153532 58 75 1.7 5.2 0.00 0.01 0.01 59 1010.9
20260507153042 58 143 1.7 5.2 0.00 0.01 0.01 59 1010.7
20260507152533 59 335 0.9 8.7 0.00 0.01 0.01 60 1011.0
20260507152032 58 309 1.7 8.7 0.00 0.01 0.01 60 1010.9
20260507151542 58 309 0.9 7.0 0.00 0.01 0.01 60 1010.9
20260507151031 58 1 0.0 5.2 0.00 0.01 0.01 61 1010.9
20260507150531 58 11 1.7 5.2 0.00 0.01 0.01 61 1010.8
20260507150047 58 42 0.9 6.1 0.00 0.01 0.01 61 1011.0
20260507145531 58 306 1.7 6.1 0.00 0.01 0.01 62 1011.0
20260507145035 58 217 0.9 3.5 0.00 0.01 0.01 62 1011.0
20260507144537 58 100 0.9 2.6 0.00 0.01 0.01 63 1011.1
20260507144032 58 108 0.9 2.6 0.00 0.01 0.01 63 1011.2
20260507143532 58 124 0.9 6.1 0.00 0.01 0.01 62 1011.0
20260507143042 58 1 0.9 6.1 0.00 0.01 0.01 63 1011.2